Flag for United Kingdom Weather past 2 weeks in Salisbury, England, United Kingdom

Now
39 °F

Partly sunny.


Feels Like: 30 °F
Forecast: N/A
Wind: 17 mph from Northwest

Location: Boscombe Down

Current Time: Feb 1, 2015 at 4:52:16 PM

Latest Report: Feb 1, 2015 at 3:50 PM


Visibility: N/A

Pressure: 29.65 "Hg

Humidity: 65%

Dew point: 28 °F

Location of SalisburyLocation

Historic Weather in Salisbury — Graph

°F

Salisbury temperature yesterday

Maximum temperature yesterday: 41 °F (at 11:50 AM)
Minimum temperature yesterday: 34 °F (at 12:50 AM)
Average temperature yesterday: 37 °F

Past Weeks' High & Low Weather Summary

 TemperatureHumidityPressure
High50 °F (Jan 26, 10:18 AM)100% (Jan 18, 3:50 AM)30.48 "Hg (Jan 18, 3:50 AM)
Low23 °F (Jan 23, 4:50 AM)57% (Jan 28, 2:50 PM)28.80 "Hg (Jan 30, 3:50 AM)
Average38 °F87%29.80 "Hg
* Reported Jan 17 2:50 PM — Feb 1 2:50 PM, Salisbury, Weather by CustomWeather, © 2014

Note: Actual official high and low records may vary slightly from our data, if they occured in-between our weather recording intervals... More about our weather records

Advertising

Salisbury weather history for previous 24 hours

 ConditionsComfort  
Time TempWeatherWind HumidityBarometerVisibility
2:50 PM
Feb 1
39 °FPartly sunny.20 mph65%29.65 "HgN/A
1:50 PM39 °FScattered clouds.25 mph65%29.62 "HgN/A
12:50 PM41 °FPartly sunny.28 mph61%29.59 "HgN/A
11:50 AM43 °FScattered clouds.25 mph61%29.59 "HgN/A
10:50 AM39 °FScattered clouds.21 mph70%29.59 "HgN/A
9:50 AM37 °FScattered clouds.21 mph75%29.56 "HgN/A
8:50 AM37 °FPartly sunny.24 mph75%29.53 "HgN/A
7:50 AM36 °FBroken clouds.16 mph81%29.50 "HgN/A
6:50 AM36 °FPassing clouds.22 mph81%29.47 "HgN/A
5:50 AM36 °FOvercast.18 mph75%29.45 "HgN/A
4:50 AM36 °FPassing clouds.20 mph70%29.45 "HgN/A
3:50 AM36 °FSnow flurries. Passing clouds.15 mph70%29.45 "HgN/A
2:50 AM34 °FPassing clouds.16 mph75%29.42 "HgN/A
1:50 AM34 °FPassing clouds.16 mph75%29.42 "HgN/A
12:50 AM34 °FPassing clouds.18 mph75%29.42 "HgN/A
11:50 PM
Jan 31
34 °FChilly.16 mph75%29.42 "HgN/A
10:50 PM34 °FChilly.17 mph75%29.42 "HgN/A
9:50 PM36 °FChilly.17 mph75%29.39 "HgN/A
8:50 PM36 °FPassing clouds.15 mph75%29.39 "HgN/A
7:50 PM37 °FPassing clouds.18 mph70%29.36 "HgN/A
6:50 PM37 °FPassing clouds.15 mph70%29.33 "HgN/A
5:50 PM39 °FPassing clouds.17 mph70%29.30 "HgN/A
4:50 PM39 °FPartly sunny.18 mph70%29.27 "HgN/A
Weather by CustomWeather, © 2014

See weather overviewHow to use our weather pages